Terminal Aerodrome Forecast
Issued by NWS Austin/San Antonio, TX

Home | Current Version | Previous Version | Text Only | Print | Product List | Glossary On
Versions: 1 2 3 4 5 6 7 8 9 10 11 12 13 14 15 16 17
000
FTUS44 KEWX 281700
TAFSAT
TAF
KSAT 281722Z 2818/2924 17008KT P6SM SCT028
     FM291000 20005KT P6SM FEW070
     FM291600 17007KT P6SM FEW070=

USA.gov is the U.S. government's official web portal to all federal, state and local government web resources and services.